Wind_Speed
24 24 24 24 23 23 23 24 24 25 25 25 25 25 25 25 25 24 24 24 24 23 22 22 22 22 21 20 20 20 20 19 20 20 20 20 20 20 20 20 20 20 20
24 25 25 25 24 24 24 25 25 25 26 26 26 26 25 26 25 25 25 25 25 25 25 24 23 23 22 21 21 21 20 21 21 20 20 20 21 21 21 21 21 21 21
24 24 25 25 25 24 24 25 25 25 26 27 27 26 26 26 26 26 26 26 27 27 26 26 25 25 23 23 22 21 21 21 21 22 22 22 22 22 22 23 23 23 23
25 25 25 26 26 26 26 26 25 26 26 27 27 27 27 27 27 26 25 26 28 28 27 27 27 26 25 24 24 23 23 22 22 22 23 22 23 23 23 24 24 24 24
26 26 27 27 27 27 27 26 26 26 27 27 27 28 27 27 27 27 26 26 27 28 28 28 28 28 27 26 25 24 24 23 22 23 24 24 24 24 24 25 25 25 26
27 27 28 29 29 29 28 27 28 28 28 28 28 28 28 28 27 28 28 28 28 28 29 29 29 29 29 27 26 25 25 24 23 23 24 25 25 25 25 26 26 26 27
29 29 29 30 30 30 29 28 29 29 29 28 28 28 28 28 28 29 30 30 30 29 30 30 30 30 29 28 28 27 25 24 24 24 24 24 25 25 26 26 27 28 28
31 31 31 31 30 30 30 30 29 30 30 30 29 29 29 29 28 29 30 31 31 30 30 30 31 31 30 30 29 28 27 26 25 25 25 25 25 26 26 27 27 28 28
30 31 31 31 31 30 30 30 30 30 30 30 29 29 29 29 29 29 30 31 32 31 31 31 31 31 31 30 30 30 29 28 27 26 26 26 26 26 25 26 27 27 28
30 30 31 31 31 31 30 30 30 30 29 30 29 29 29 29 29 29 30 30 31 32 33 32 31 31 31 30 29 30 29 29 28 27 27 27 26 25 25 25 25 26 28
29 30 30 30 30 30 30 30 30 29 29 28 29 29 29 29 29 30 30 30 30 31 32 32 31 30 30 30 30 30 29 29 29 28 27 27 27 26 25 25 25 26 27
29 29 29 29 29 29 29 29 29 28 29 28 29 29 29 28 29 29 29 30 30 30 30 31 30 30 30 30 31 30 30 29 29 29 28 28 27 26 25 25 26 26 27
29 28 29 28 28 28 28 27 27 27 27 28 28 27 28 28 27 28 28 28 28 28 29 30 30 30 30 30 31 31 31 30 29 30 30 29 28 27 26 26 25 25 26
26 26 26 26 26 26 25 25 25 25 25 26 26 26 26 26 26 26 25 25 25 26 27 28 29 30 30 30 31 31 31 30 30 30 30 30 29 29 28 27 27 26 26
25 24 24 24 23 23 24 24 24 24 23 23 23 24 25 25 25 25 25 25 25 24 25 27 28 28 29 30 30 31 30 30 31 31 30 30 29 29 29 28 28 28 27
22 22 22 21 21 21 21 22 22 22 22 21 22 22 23 23 23 23 25 25 26 25 24 26 27 27 28 28 29 29 30 30 29 30 30 30 30 29 29 29 29 29 28
20 20 20 19 19 19 19 19 19 20 20 19 19 19 19 20 21 21 22 22 23 24 24 24 25 26 27 28 28 28 28 27 27 28 28 28 28 28 28 28 28 28 27
19 19 18 17 17 17 17 17 17 17 17 16 16 16 16 17 18 19 20 21 21 21 22 22 22 23 24 25 25 26 26 26 26 26 26 26 27 27 27 26 26 26 26
18 17 16 16 16 16 16 15 14 15 15 14 13 13 14 15 16 17 17 18 18 19 19 19 20 21 21 22 22 22 22 23 24 24 25 25 25 25 25 24 24 24 24
16 15 15 16 15 14 14 14 14 14 13 13 13 13 14 13 14 15 14 14 15 16 16 17 17 18 19 19 18 18 19 20 21 21 21 21 21 21 21 21 21 21 21
14 14 14 14 13 13 13 13 13 12 11 11 12 12 12 12 12 12 12 12 13 13 13 14 14 15 17 17 17 17 17 18 18 19 19 19 20 20 20 20 19 19 18
12 12 12 12 11 11 12 11 10 10 10 10 9 9 9 9 10 10 10 10 10 11 11 11 11 12 13 14 14 15 16 16 16 16 17 17 18 18 18 17 17 17 17
11 11 11 11 10 10 10 10 9 9 8 7 6 6 6 6 6 6 6 7 7 7 8 10 9 9 9 11 11 12 12 14 15 15 14 13 14 15 15 15 15 15 16
10 10 9 10 10 10 9 9 9 8 6 5 5 5 4 4 3 3 3 4 4 4 5 6 8 8 8 8 9 10 11 11 13 13 13 13 13 13 13 13 14 14 15
9 9 9 9 9 9 9 8 8 7 6 5 5 4 3 2 2 2 2 2 3 3 3 3 4 5 5 7 8 9 9 10 11 12 12 13 13 13 13 14 14 14 14
9 8 8 8 8 7 7 7 7 7 5 5 5 4 3 2 2 2 2 2 2 2 2 2 3 4 4 5 6 7 8 9 10 10 11 12 13 13 14 14 14 14 14
Wind_Direction
290 290 290 289 288 287 287 285 282 280 276 275 273 271 270 267 264 263 263 260 257 257 258 258 259 261 261 260 259 253 250 250 248 247 245 244 242 242 243 243 244 245 245
289 288 287 286 285 285 286 284 283 281 279 277 274 274 272 269 266 264 263 259 255 255 255 256 258 258 260 260 259 255 252 251 248 247 247 246 245 244 243 244 245 246 247
287 287 287 285 285 284 284 284 282 281 279 277 275 273 271 270 266 264 263 259 256 254 254 254 257 257 259 261 260 258 256 254 249 248 247 247 248 245 244 244 246 248 249
285 284 285 284 284 283 283 282 282 281 279 277 275 273 272 269 264 263 261 258 255 254 253 254 254 254 256 259 258 258 257 255 254 251 249 250 251 249 247 247 248 249 251
286 285 284 284 283 282 281 281 280 280 279 278 276 273 273 270 265 260 258 257 256 254 254 253 252 253 255 256 256 256 256 256 254 253 253 254 252 251 249 249 249 250 251
285 284 284 283 281 281 279 279 279 279 279 278 276 274 271 270 266 260 256 254 254 254 254 253 254 254 254 255 255 254 254 253 255 255 255 254 255 254 253 250 250 251 253
283 282 282 282 281 280 279 279 279 278 277 277 275 273 270 269 266 262 257 255 255 256 255 254 253 254 254 253 253 255 254 254 256 256 256 255 255 256 256 253 254 253 256
283 283 281 281 280 280 279 280 280 279 277 275 274 272 270 268 267 263 260 257 256 256 255 255 254 253 253 252 253 254 254 256 257 256 258 257 258 257 257 257 258 257 258
285 284 282 281 280 280 280 279 279 279 277 274 273 271 270 268 266 262 261 259 257 257 256 255 255 254 255 254 254 254 255 255 257 259 260 260 261 261 262 262 263 262 261
285 285 285 283 281 280 280 279 279 278 277 274 271 270 269 267 264 262 260 260 258 257 255 254 253 253 255 256 257 257 256 256 257 259 261 262 263 263 265 265 264 264 263
286 285 286 284 282 280 280 280 279 277 276 274 273 272 269 267 264 262 260 259 259 258 255 253 252 252 253 254 255 256 255 256 257 258 259 261 263 263 263 264 265 266 265
288 287 285 285 283 281 282 280 278 277 276 275 274 272 270 267 265 263 260 258 259 259 257 253 252 253 254 254 253 253 254 256 258 259 259 260 261 262 262 264 265 266 265
291 291 287 286 285 284 283 282 280 278 277 276 275 272 270 267 264 263 261 259 258 257 257 255 255 256 256 255 254 253 254 255 257 259 259 260 260 260 262 263 265 265 265
294 292 291 290 288 286 285 283 283 281 279 279 276 273 271 267 264 262 260 260 259 257 256 256 256 257 258 257 255 254 254 255 256 257 258 259 259 260 262 262 264 265 267
297 296 294 293 292 290 287 286 283 280 280 279 276 273 269 268 265 260 259 261 261 259 258 256 257 257 256 257 258 257 257 257 257 258 258 257 259 261 263 263 264 266 268
299 299 298 298 297 293 290 287 284 281 281 279 276 273 270 267 267 263 262 262 261 260 260 258 257 256 255 257 258 259 258 258 258 257 256 256 258 260 262 263 265 266 268
301 302 301 301 300 297 295 290 287 284 282 281 278 274 271 268 265 263 261 262 262 263 260 258 257 257 257 257 258 258 257 255 256 255 255 258 259 260 261 262 264 265 266
303 305 306 304 303 301 299 296 292 289 285 282 278 275 272 268 265 264 262 262 262 262 261 258 256 256 256 255 257 258 254 254 254 254 256 258 259 259 261 261 263 264 264
304 306 307 308 307 304 303 301 299 294 288 281 278 277 275 270 266 265 266 264 261 260 258 256 254 254 254 254 255 254 251 250 251 253 255 257 258 259 259 260 260 262 263
306 307 308 311 310 308 308 307 306 300 291 285 282 279 277 272 268 265 265 263 260 260 257 255 253 251 251 251 251 249 249 248 249 251 254 256 256 257 258 258 259 261 264
310 311 313 315 313 311 311 313 313 311 304 293 284 279 276 273 272 269 265 262 260 259 257 254 250 250 249 249 249 247 248 248 248 252 254 255 255 255 254 255 257 259 263
316 316 317 324 321 318 319 321 324 320 314 303 293 287 280 278 274 272 269 265 263 260 256 249 250 251 249 248 247 248 250 247 250 253 254 252 249 249 249 252 256 261 264
321 321 322 329 330 326 328 329 328 326 323 318 306 299 292 288 281 273 266 264 258 255 253 249 252 253 250 244 244 246 249 249 247 250 251 252 253 253 253 255 260 263 267
320 322 323 325 330 331 329 332 335 337 339 339 333 314 295 296 290 275 271 267 253 248 249 249 250 251 248 243 245 247 249 247 243 245 250 253 257 260 259 259 264 268 272
323 326 325 327 331 330 331 334 341 343 346 352 348 339 328 327 323 305 292 278 261 256 242 241 243 247 253 247 245 248 248 245 245 250 256 260 262 265 265 265 265 267 270
331 328 329 333 332 331 335 342 343 346 357 3 1 357 354 344 335 328 322 301 262 249 240 236 242 249 257 262 254 251 251 251 252 255 258 263 264 263 264 265 266 267 270
Height
5865 5863 5861 5860 5858 5857 5856 5855 5854 5853 5853 5853 5852 5852 5851 5851 5851 5850 5851 5851 5851 5852 5853 5853 5853 5854 5854 5854 5855 5856 5857 5858 5859 5860 5861 5862 5863 5865 5866 5867 5868 5869 5870
5860 5858 5857 5855 5853 5852 5851 5850 5849 5848 5847 5847 5846 5846 5845 5845 5845 5845 5844 5845 5845 5846 5847 5848 5848 5849 5849 5850 5850 5851 5852 5853 5854 5855 5856 5857 5859 5860 5861 5862 5863 5864 5865
5855 5853 5851 5850 5849 5847 5846 5844 5843 5842 5841 5841 5840 5840 5839 5839 5839 5839 5838 5839 5839 5840 5841 5842 5843 5844 5844 5845 5845 5846 5847 5848 5849 5850 5851 5852 5853 5854 5856 5857 5858 5859 5860
5849 5848 5846 5844 5843 5841 5840 5839 5838 5837 5836 5835 5834 5833 5833 5832 5832 5832 5832 5832 5833 5834 5834 5836 5837 5838 5839 5839 5840 5841 5842 5842 5843 5844 5846 5847 5848 5849 5850 5851 5852 5854 5854
5843 5841 5840 5839 5837 5836 5834 5833 5832 5830 5829 5828 5827 5826 5826 5825 5825 5825 5826 5825 5826 5827 5828 5829 5830 5831 5832 5833 5834 5835 5836 5837 5838 5839 5840 5841 5842 5843 5844 5845 5847 5847 5849
5837 5835 5834 5832 5830 5829 5827 5826 5825 5823 5822 5821 5820 5819 5818 5818 5818 5818 5818 5819 5820 5820 5821 5823 5824 5825 5826 5827 5828 5829 5830 5831 5832 5833 5834 5835 5836 5837 5838 5839 5840 5841 5842
5830 5829 5827 5825 5823 5821 5820 5819 5818 5816 5815 5814 5813 5812 5811 5811 5811 5811 5811 5812 5813 5813 5814 5816 5817 5818 5819 5821 5822 5823 5824 5825 5826 5827 5828 5829 5830 5831 5832 5833 5834 5835 5835
5823 5821 5820 5818 5816 5814 5813 5812 5810 5809 5807 5806 5806 5805 5804 5804 5803 5803 5804 5804 5805 5806 5807 5808 5810 5811 5812 5814 5815 5817 5818 5819 5820 5821 5822 5823 5824 5824 5825 5826 5827 5827 5828
5815 5814 5812 5810 5808 5806 5805 5804 5802 5801 5800 5799 5798 5797 5796 5796 5796 5796 5796 5797 5798 5798 5800 5801 5803 5804 5805 5807 5808 5810 5811 5813 5814 5815 5816 5817 5817 5818 5818 5819 5820 5820 5821
5807 5805 5804 5802 5800 5798 5797 5795 5794 5793 5792 5791 5790 5789 5789 5788 5788 5788 5789 5789 5789 5790 5792 5793 5795 5797 5799 5800 5801 5803 5804 5806 5807 5808 5809 5810 5811 5811 5812 5813 5813 5814 5814
5799 5797 5796 5793 5792 5790 5788 5787 5786 5785 5783 5782 5782 5781 5780 5780 5780 5780 5781 5781 5781 5782 5784 5785 5787 5789 5791 5793 5794 5796 5797 5799 5800 5801 5803 5804 5804 5805 5806 5806 5807 5807 5807
5793 5790 5788 5786 5784 5782 5780 5779 5777 5776 5775 5774 5773 5773 5772 5772 5772 5772 5773 5773 5774 5775 5776 5777 5779 5781 5783 5785 5787 5789 5791 5792 5793 5795 5796 5797 5798 5798 5799 5800 5800 5800 5801
5785 5782 5780 5778 5776 5774 5772 5771 5770 5768 5767 5766 5765 5764 5764 5764 5764 5764 5765 5766 5766 5767 5768 5769 5771 5773 5775 5777 5779 5782 5783 5785 5786 5788 5789 5790 5791 5792 5792 5793 5794 5794 5794
5778 5775 5772 5770 5768 5767 5765 5764 5763 5761 5760 5759 5758 5757 5756 5756 5757 5757 5758 5759 5760 5761 5761 5762 5764 5765 5767 5769 5771 5774 5776 5777 5779 5780 5782 5783 5784 5785 5786 5786 5787 5787 5787
5772 5769 5766 5764 5762 5760 5759 5758 5756 5755 5753 5752 5751 5750 5749 5749 5750 5750 5751 5752 5753 5754 5755 5756 5757 5758 5760 5762 5763 5765 5768 5770 5771 5773 5774 5776 5777 5778 5779 5779 5780 5780 5781
5767 5764 5761 5759 5756 5755 5753 5751 5750 5748 5747 5745 5744 5743 5743 5743 5743 5744 5745 5746 5746 5747 5748 5749 5750 5751 5752 5754 5756 5758 5760 5762 5763 5765 5767 5768 5770 5770 5771 5772 5773 5773 5774
5763 5760 5757 5754 5752 5749 5747 5746 5744 5742 5741 5739 5738 5737 5737 5737 5737 5738 5738 5739 5739 5740 5741 5742 5742 5744 5745 5747 5748 5750 5752 5754 5756 5758 5759 5761 5762 5763 5764 5765 5766 5766 5767
5758 5755 5752 5750 5748 5745 5743 5741 5738 5737 5735 5734 5733 5733 5732 5732 5732 5732 5733 5733 5733 5734 5734 5735 5736 5737 5738 5740 5742 5743 5745 5747 5749 5751 5753 5754 5755 5756 5757 5758 5759 5759 5760
5754 5751 5749 5746 5744 5741 5739 5736 5734 5732 5730 5729 5729 5728 5728 5727 5727 5727 5727 5728 5728 5728 5729 5730 5730 5732 5733 5734 5736 5737 5739 5741 5743 5744 5746 5747 5748 5749 5750 5751 5752 5753 5753
5750 5748 5745 5743 5740 5737 5735 5733 5731 5729 5727 5725 5725 5724 5724 5723 5723 5723 5723 5723 5723 5724 5724 5725 5726 5726 5728 5729 5730 5732 5733 5735 5737 5738 5740 5741 5742 5743 5744 5745 5746 5747 5747
5747 5745 5742 5739 5737 5734 5732 5729 5727 5725 5723 5722 5722 5721 5720 5720 5719 5719 5720 5720 5720 5720 5720 5721 5721 5722 5723 5724 5725 5727 5729 5730 5732 5733 5734 5736 5737 5738 5738 5739 5740 5741 5741
5744 5742 5740 5737 5734 5732 5729 5727 5725 5723 5721 5720 5719 5718 5717 5717 5717 5717 5717 5717 5717 5717 5718 5718 5719 5719 5720 5721 5722 5723 5725 5726 5728 5729 5730 5731 5732 5732 5733 5734 5735 5735 5736
5742 5740 5738 5735 5733 5730 5728 5725 5723 5721 5719 5718 5717 5716 5715 5715 5715 5714 5714 5714 5715 5715 5715 5716 5716 5716 5717 5718 5719 5720 5721 5723 5724 5725 5726 5727 5728 5728 5729 5729 5730 5731 5731
5740 5738 5736 5734 5732 5729 5727 5724 5722 5720 5718 5717 5716 5715 5714 5714 5714 5713 5713 5713 5714 5713 5713 5714 5714 5715 5715 5716 5717 5718 5719 5720 5721 5722 5723 5724 5724 5724 5725 5725 5726 5726 5726
5739 5737 5735 5733 5730 5728 5726 5724 5722 5720 5718 5717 5716 5715 5714 5713 5713 5713 5712 5712 5712 5712 5712 5713 5713 5713 5714 5715 5715 5716 5716 5717 5718 5719 5720 5720 5720 5721 5721 5721 5721 5721 5721
5738 5736 5734 5732 5730 5728 5725 5723 5721 5719 5718 5717 5716 5715 5714 5713 5713 5713 5712 5712 5712 5712 5712 5712 5713 5713 5713 5713 5713 5714 5714 5715 5716 5716 5716 5717 5717 5717 5718 5717 5717 5717 5717